• In Deutschland
  • Länderverzeichnis
  • Für 7 Tage
  • Wassertemperatur
  • Satellitenkarten
  • Wetterkarte
  • Widgets
  • user-avatar
    Anmelden

    Stündliche Wetter Shirvan

    Heute, 20 Juni, Mittwoch

    Zeit Temperatur Niederschläge Wind Luftdruck Luftfeuchtigkeit
    00:00 +25°C° 0 mm 3 m/S 759 mmHg 50%
    01:00 +25°C° 0 mm 3 m/S 760 mmHg 51%
    02:00 +25°C° 0 mm 2 m/S 760 mmHg 53%
    03:00 +24°C° 0 mm 2 m/S 759 mmHg 55%
    04:00 +25°C° 0 mm 2 m/S 760 mmHg 54%
    05:00 +25°C° 0 mm 2 m/S 760 mmHg 52%
    06:00 +25°C° 0 mm 2 m/S 760 mmHg 51%
    07:00 +27°C° 0 mm 2 m/S 760 mmHg 46%
    08:00 +28°C° 0 mm 1 m/S 760 mmHg 40%
    09:00 +29°C° 0 mm 1 m/S 760 mmHg 35%
    10:00 +30°C° 0 mm 2 m/S 760 mmHg 33%
    11:00 +31°C° 0 mm 2 m/S 760 mmHg 30%
    12:00 +33°C° 0 mm 3 m/S 760 mmHg 28%
    13:00 +34°C° 0 mm 4 m/S 759 mmHg 27%
    14:00 +34°C° 0 mm 4 m/S 759 mmHg 27%
    15:00 +34°C° 0 mm 5 m/S 759 mmHg 26%
    16:00 +33°C° 0 mm 5 m/S 759 mmHg 28%
    17:00 +33°C° 0 mm 5 m/S 760 mmHg 30%
    18:00 +32°C° 0 mm 6 m/S 760 mmHg 32%
    19:00 +30°C° 0 mm 5 m/S 760 mmHg 35%
    20:00 +29°C° 0 mm 5 m/S 760 mmHg 39%
    21:00 +28°C° 0 mm 4 m/S 761 mmHg 42%
    22:00 +27°C° 0 mm 4 m/S 761 mmHg 44%
    23:00 +27°C° 0 mm 3 m/S 761 mmHg 46%

    Morgen, 21 Juni, Donnerstag

    Zeit Temperatur Niederschläge Wind Luftdruck Luftfeuchtigkeit
    00:00 +26°C° 0 mm 3 m/S 761 mmHg 48%
    01:00 +26°C° 0 mm 2 m/S 761 mmHg 50%
    02:00 +25°C° 0 mm 2 m/S 761 mmHg 52%
    03:00 +25°C° 0 mm 1 m/S 761 mmHg 54%
    04:00 +25°C° 0 mm 1 m/S 761 mmHg 53%
    05:00 +26°C° 0 mm 1 m/S 761 mmHg 51%
    06:00 +26°C° 0 mm 1 m/S 761 mmHg 49%
    07:00 +27°C° 0 mm 1 m/S 761 mmHg 45%
    08:00 +29°C° 0 mm 1 m/S 761 mmHg 41%
    09:00 +30°C° 0 mm 1 m/S 761 mmHg 37%
    10:00 +31°C° 0 mm 1 m/S 761 mmHg 34%
    11:00 +32°C° 0 mm 1 m/S 761 mmHg 32%
    12:00 +35°C° 0 mm 2 m/S 761 mmHg 29%
    13:00 +35°C° 0 mm 2 m/S 760 mmHg 28%
    14:00 +35°C° 0 mm 3 m/S 760 mmHg 27%
    15:00 +36°C° 0 mm 4 m/S 760 mmHg 26%
    16:00 +35°C° 0 mm 5 m/S 759 mmHg 27%
    17:00 +34°C° 0 mm 5 m/S 759 mmHg 27%
    18:00 +33°C° 0 mm 6 m/S 759 mmHg 28%
    19:00 +32°C° 0 mm 5 m/S 760 mmHg 30%
    20:00 +30°C° 0 mm 4 m/S 760 mmHg 32%
    21:00 +29°C° 0 mm 3 m/S 760 mmHg 34%
    22:00 +28°C° 0 mm 3 m/S 760 mmHg 35%
    23:00 +28°C° 0 mm 2 m/S 760 mmHg 37%

    übermorgen, 22 Juni, Freitag

    Zeit Temperatur Niederschläge Wind Luftdruck Luftfeuchtigkeit
    00:00 +27°C° 0 mm 1 m/S 759 mmHg 38%
    01:00 +26°C° 0 mm 1 m/S 759 mmHg 39%
    02:00 +26°C° 0 mm 1 m/S 759 mmHg 40%
    03:00 +23°C° 0 mm 0 m/S 759 mmHg 42%
    04:00 +24°C° 0 mm 0 m/S 759 mmHg 40%
    05:00 +27°C° 0 mm 1 m/S 759 mmHg 38%
    06:00 +28°C° 0 mm 1 m/S 759 mmHg 36%
    07:00 +29°C° 0 mm 1 m/S 759 mmHg 33%
    08:00 +30°C° 0 mm 2 m/S 759 mmHg 29%
    09:00 +32°C° 0 mm 2 m/S 758 mmHg 26%
    10:00 +34°C° 0 mm 3 m/S 758 mmHg 24%
    11:00 +35°C° 0 mm 4 m/S 758 mmHg 22%
    12:00 +36°C° 0 mm 4 m/S 758 mmHg 21%
    13:00 +36°C° 0 mm 5 m/S 757 mmHg 21%
    14:00 +36°C° 0 mm 5 m/S 757 mmHg 21%
    15:00 +36°C° 0 mm 6 m/S 756 mmHg 21%
    16:00 +35°C° 0 mm 6 m/S 756 mmHg 23%
    17:00 +34°C° 0 mm 5 m/S 756 mmHg 25%
    18:00 +33°C° 0 mm 5 m/S 756 mmHg 27%
    19:00 +30°C° 0 mm 4 m/S 756 mmHg 31%
    20:00 +29°C° 0 mm 3 m/S 756 mmHg 35%
    21:00 +28°C° 0 mm 3 m/S 757 mmHg 39%
    22:00 +28°C° 0 mm 2 m/S 756 mmHg 41%
    23:00 +27°C° 0 mm 1 m/S 756 mmHg 43%

    23 Juni, Samstag

    Zeit Temperatur Niederschläge Wind Luftdruck Luftfeuchtigkeit
    00:00 +27°C° 0 mm 1 m/S 756 mmHg 44%
    01:00 +26°C° 0 mm 1 m/S 756 mmHg 45%
    02:00 +26°C° 0 mm 1 m/S 756 mmHg 46%
    03:00 +26°C° 0 mm 1 m/S 756 mmHg 47%
    04:00 +26°C° 0 mm 1 m/S 756 mmHg 45%
    05:00 +27°C° 0 mm 2 m/S 756 mmHg 43%
    06:00 +27°C° 0 mm 2 m/S 756 mmHg 40%
    07:00 +29°C° 0 mm 2 m/S 756 mmHg 37%
    08:00 +31°C° 0 mm 2 m/S 756 mmHg 33%
    09:00 +32°C° 0 mm 2 m/S 756 mmHg 29%
    10:00 +33°C° 0 mm 1 m/S 756 mmHg 26%
    11:00 +35°C° 0 mm 1 m/S 755 mmHg 24%
    12:00 +36°C° 0 mm 1 m/S 755 mmHg 22%
    13:00 +37°C° 0 mm 2 m/S 755 mmHg 22%
    14:00 +38°C° 0 mm 3 m/S 755 mmHg 21%
    15:00 +38°C° 0 mm 3 m/S 754 mmHg 21%
    16:00 +38°C° 0 mm 4 m/S 754 mmHg 22%
    17:00 +37°C° 0 mm 4 m/S 754 mmHg 24%
    18:00 +36°C° 0 mm 5 m/S 755 mmHg 26%
    19:00 +35°C° 0 mm 4 m/S 755 mmHg 29%
    20:00 +33°C° 0 mm 3 m/S 755 mmHg 32%
    21:00 +31°C° 0 mm 2 m/S 756 mmHg 35%
    22:00 +30°C° 0 mm 2 m/S 756 mmHg 36%
    23:00 +30°C° 0 mm 2 m/S 756 mmHg 37%

    24 Juni, Sonntag

    Zeit Temperatur Niederschläge Wind Luftdruck Luftfeuchtigkeit
    00:00 +29°C° 0 mm 1 m/S 756 mmHg 38%
    01:00 +29°C° 0 mm 1 m/S 756 mmHg 38%
    02:00 +29°C° 0 mm 1 m/S 756 mmHg 38%
    03:00 +28°C° 0 mm 1 m/S 756 mmHg 39%
    04:00 +29°C° 0 mm 1 m/S 756 mmHg 37%
    05:00 +30°C° 0 mm 2 m/S 756 mmHg 36%
    06:00 +30°C° 0 mm 2 m/S 756 mmHg 35%
    07:00 +32°C° 0 mm 2 m/S 756 mmHg 32%
    08:00 +34°C° 0 mm 2 m/S 757 mmHg 29%
    09:00 +36°C° 0 mm 2 m/S 757 mmHg 27%
    10:00 +37°C° 0 mm 2 m/S 757 mmHg 25%
    11:00 +38°C° 0 mm 2 m/S 756 mmHg 23%
    12:00 +39°C° 0 mm 2 m/S 756 mmHg 21%
    13:00 +39°C° 0 mm 3 m/S 756 mmHg 21%
    14:00 +40°C° 0 mm 3 m/S 756 mmHg 21%
    15:00 +41°C° 0 mm 4 m/S 756 mmHg 20%
    16:00 +40°C° 0 mm 5 m/S 756 mmHg 23%
    17:00 +39°C° 0 mm 5 m/S 756 mmHg 25%
    18:00 +38°C° 0 mm 6 m/S 756 mmHg 27%
    19:00 +36°C° 0 mm 5 m/S 757 mmHg 30%
    20:00 +34°C° 0 mm 4 m/S 757 mmHg 33%
    21:00 +33°C° 0 mm 3 m/S 757 mmHg 36%
    22:00 +31°C° 0 mm 3 m/S 757 mmHg 38%
    23:00 +31°C° 0 mm 2 m/S 757 mmHg 40%

    25 Juni, Montag

    Zeit Temperatur Niederschläge Wind Luftdruck Luftfeuchtigkeit
    00:00 +30°C° 0 mm 2 m/S 757 mmHg 42%
    01:00 +29°C° 0 mm 2 m/S 757 mmHg 43%
    02:00 +29°C° 0 mm 2 m/S 757 mmHg 45%
    03:00 +28°C° 0 mm 2 m/S 757 mmHg 46%
    04:00 +29°C° 0 mm 2 m/S 757 mmHg 44%
    05:00 +30°C° 0 mm 2 m/S 758 mmHg 43%
    06:00 +30°C° 0 mm 2 m/S 758 mmHg 41%
    07:00 +33°C° 0 mm 3 m/S 758 mmHg 37%
    08:00 +34°C° 0 mm 3 m/S 758 mmHg 32%
    09:00 +36°C° 0 mm 3 m/S 758 mmHg 28%
    10:00 +37°C° 0 mm 4 m/S 758 mmHg 26%
    11:00 +39°C° 0 mm 5 m/S 758 mmHg 25%
    12:00 +40°C° 0 mm 5 m/S 757 mmHg 23%
    13:00 +40°C° 0 mm 6 m/S 757 mmHg 24%
    14:00 +40°C° 0 mm 7 m/S 757 mmHg 24%
    15:00 +40°C° 0 mm 8 m/S 757 mmHg 25%
    16:00 +39°C° 0 mm 8 m/S 757 mmHg 27%
    17:00 +38°C° 0 mm 8 m/S 757 mmHg 28%
    18:00 +37°C° 0 mm 8 m/S 757 mmHg 30%
    19:00 +35°C° 0 mm 8 m/S 757 mmHg 31%
    20:00 +34°C° 0 mm 7 m/S 758 mmHg 33%
    21:00 +33°C° 0 mm 6 m/S 758 mmHg 34%
    22:00 +33°C° 0 mm 6 m/S 758 mmHg 37%
    23:00 +32°C° 0 mm 5 m/S 758 mmHg 39%
    Mehr zeigen